カタログに戻る

3CAT-5/B

TYVAK-0162

運用中科学SSO
NORAD 46293·PAYLOAD·🇪🇸 Spain

打ち上げ Sep 3, 2020 から Guiana Space Centre

Loading…

次のパス (今後24時間)

TLE

最新Source: Space-Track

元期: Sep 14, 2026, 10:37 UTC

1 46293U 20061X   26257.44241698  .00014730  00000-0  26141-3 0  9995
2 46293  97.2293 321.5196 0003118 131.4873 228.6647 15.50315336334877

AllMySatで3CAT-5/Bをリアルタイム追跡

Download on the App Store